STARLINK-32078, 60338

Orbit data source: Space-Track

STARLINK-32078, 60338 is a payload satellite owned by SpaceX/Seattle (US) in LEO that was launched on Fri, 02 Aug 2024 UTC via an FALCON 9 launch vehicle from the Air Force Eastern Test Range (AFETR). Payload-class satellites include a variety of spacecraft equipped with specific instruments for various scientific and technological missions. These include communications satellites like Starlink; space stations such as the ISS; scientific satellites like the Hubble; Earth observation satellites from companies like Planet Labs, Umbra, and HawkEye 360; GPS; miniature CubeSats for education and research; and military/defense satellites.

Loading next visibility...
Identifier
60338, 2024-136K
Orbit
LEO
Last TLE update
1 day ago
Origin
Manufacturer
SpaceX/Seattle
Mission
Operational Commercial Communications
Bus & Motor
STARLINK V2M, Unknown motor
Mass
730 kg wet, ~700 kg dry
Launch date (UTC)
2024-08-02 (11 months ago)
Launch vehicle
FALCON 9
Launch site
Air Force Eastern Test Range (AFETR)
Object type
Payload
Rocket body
Debris
Shape & HBR
Box + 2 Pan, 29 m
Radar Cross Section
33.884 m², Large (>1 m²)

Expand to show TLE details & history

TLE from 1 day ago
0 STARLINK-32078
1 60338U 24136K   25182.22673456 -.00000014  00000-0  11655-4 0  9997
2 60338  53.1592 163.7440 0001090  81.8962 278.2163 15.30197234 51163
Epoch: 2025-07-01T05:26Z
TLE epoch observation values (Epoch: 2025-07-01T05:26:29.865Z)
Latitude
Longitude
162.59434°
Altitude
476.016 km
Speed
7.629 km/s
True Right ascension
10h 54m 58s
True Declination
0° 00' 00"
Sunlit
Object was in daylight at epoch
Visualization orbit readout
Latitude
11.9496°
Longitude
167.10212°
Altitude
475.099 km
Speed
7.631 km/s
Apparent Right ascension
08h 38m 10s
Apparent Declination
-18° 54' 47"
Sunlit
Object is in daylight
Visualization observer readout
Local Sidereal Time
16:42:41
Azimuth
274.603° WNW
Elevation
-35.667°
Doppler factor
1
Orbital elements
Apogee altitude
476.227 km
Perigee altitude
474.733 km
Semi-major axis
6,853.617 km
Eccentricity
0.00011
Inclination
53.1592°
RAAN
163.744°
Arg. of periapsis
81.8962°
True anomaly
Unknown
Mean anomaly
278.2163°
Eccentric anomaly
Unknown
Mean motion
3.82528 °/min
Orbital period
94.11 mins
BSTAR
0.000011655
Loading maneuver chart data...
Loading SW <> Apogee altitude chart data...
Loading historical data...
Loading historical data...
Loading historical data...
Loading historical data...
Loading historical data...
Loading historical data...
Loading historical data...

STARLINK-32078 Visibility forecast

Observer location: undefined°, undefined°

Span
Click to sort rows by Start time (UTC) header in descending order
Start Az.
Max El. time (UTC)
Max El. Az.
Max El.
End time (UTC)
End Az.
4 mins2025-07-02 07:00:11.013Z1.227° NNE2025-07-02 07:01:11.013Z26.354° NE21.783°2025-07-02 07:04:11.013Z81.812° E
5 mins2025-07-02 08:37:11.013Z294.445° NW2025-07-02 08:39:11.013Z233.631° WSW39.024°2025-07-02 08:42:11.013Z149.104° SSE
5 mins2025-07-03 01:33:11.013Z258.11° W2025-07-03 01:35:11.013Z350.487° N38.026°2025-07-03 01:38:11.013Z41.842° NE
|